Regional Weather Roundup
Issued by NWS

Home | Current Version | Previous Version | Graphics & Text | Print | Product List | Glossary On
Versions: 1 2 3 4 5 6 7 8 9 10 11 12 13 14 15 16 17 18 19 20 21 22 23 24 25 26 27 28 29 30 31 32 33 34 35 36 37 38 39 40 41 42 43 44 45 46 47 48 49 50
000
ASUS43 KMPX 250001
RWRMN
WEATHER ROUNDUP FOR MINNESOTA
NATIONAL WEATHER SERVICE TWIN CITIES/CHANHASSEN MN
600 PM CST WED DEC 24 2014


NOTE: "FAIR" INDICATES FEW OR NO CLOUDS BELOW 12,000 FEET WITH NO
SIGNIFICANT WEATHER AND/OR OBSTRUCTIONS TO VISIBILITY. N/A MEANS
CURRENT SKY AND/OR WEATHER CONDITIONS ARE NOT AVAILABLE.

MNZ060>063-068>070-250100-
   Twin Cities Metro

CITY           SKY/WX    TMP DP  RH WIND       PRES   REMARKS
TWIN CITIES    CLOUDY    34  30  85 W9        29.62F WCI  27
6HR MIN TEMP:  34; 6HR MAX TEMP:  36;

ST PAUL        CLOUDY    35  31  85 W7        29.63F WCI  29
CRYSTAL        CLOUDY    35  31  85 W8        29.60F WCI  29
BLAINE         CLOUDY    36  36 100 W5        29.61F
LAKEVILLE      CLOUDY    32  30  93 W9        29.62S WCI  24
EDEN PRAIRIE   CLOUDY    34  30  85 W3        29.61F
6HR MIN TEMP:  34; 6HR MAX TEMP:  36;

SOUTH ST PAUL  CLOUDY    36  32  85 W5        29.61F
LAKE ELMO      CLOUDY    34  32  93 CALM      29.61F
$$
MNZ001>005-007-008-013>017-022>024-027-028-250100-
   Northwest Minnesota

CITY           SKY/WX    TMP DP  RH WIND       PRES   REMARKS
BEMIDJI        CLOUDY    29  27  89 SW5       29.52F WCI  24
HALLOCK        LGT SNOW  28  27  93 S16       29.47F WCI  17
ROSEAU         CLOUDY    28  25  86 S8        29.49F WCI  20
WARROAD        CLOUDY    28  25  86 SW6       29.50F WCI  22
THIEF RVR FALL CLOUDY    27  25  93 S15       29.51F WCI  15
CROOKSTON      CLOUDY    27  27 100 S16       29.53F WCI  14
FOSSTON        CLOUDY    25  25 100 S15       29.53F WCI  12
DETROIT LAKES  CLOUDY    28  27  93 S8        29.55F WCI  20
MOORHEAD       CLOUDY    28  28 100 S12       29.56F FOG     WCI  18
PARK RAPIDS    CLOUDY    30  27  88 SW8       29.54S WCI  22
MAHNOMEN       CLOUDY    26  25  96 S14       29.55F WCI  15
$$
MNZ006-009>011-018-025>026-250100-
   North Central Minnesota

CITY           SKY/WX    TMP DP  RH WIND       PRES   REMARKS
BAUDETTE       CLOUDY    30  26  85 SW8       29.50F WCI  22
FLAG ISLAND    DRIZZLE   28  27  93 S8        29.48F WCI  20
INTL FALLS     LGT SNOW  32  31  96 CALM      29.51F FOG
6HR MIN TEMP:  32; 6HR MAX TEMP:  33; 6HR PCP: TRACE;

WASKISH        CLOUDY    30  30 100 CALM      29.52F
BIG FORK       CLOUDY    32  30  93 SW5       29.53F WCI  27
LONGVILLE      CLOUDY    30  30 100 CALM      29.54F
GRAND RAPIDS   CLOUDY    30  28  93 SW3       29.54S
CRANE LAKE     CLOUDY    30  30 100 CALM      29.54F
ORR            CLOUDY    30  30 100 CALM      29.50F
COOK           CLOUDY    30  30 100 CALM      29.52F FOG
WALKER         CLOUDY    30  26  86 CALM      29.54S
$$
MNZ012-019>021-037-250100-
   Northeast Minnesota

CITY           SKY/WX    TMP DP  RH WIND       PRES   REMARKS
DULUTH         CLOUDY    32  29  88 W7        29.53F WCI  26
6HR MIN TEMP:  32; 6HR MAX TEMP:  34; 6HR PCP: TRACE;

ELY            CLOUDY    30  30 100 CALM      29.52F
HIBBING        CLOUDY    33  30  88 CALM      29.53S
EVELETH        CLOUDY    32  32 100 CALM      29.53F
DULUTH HARBOR  CLOUDY    36  30  80 CALM      29.57F
TWO HARBORS    CLOUDY    36  30  80 CALM      29.52F
SILVER BAY     CLOUDY    34  30  86 CALM      29.52F
GRAND MARAIS     N/A     35  28  75 E5        29.54F WCI  31
G MARAIS ARPRT CLOUDY    27  25  93 NW5       29.50F WCI  21
$$
MNZ029>031-032-039>041-046>048-054>057-064-250100-
   West Central Minnesota

CITY           SKY/WX    TMP DP  RH WIND       PRES   REMARKS
FERGUS FALLS   CLOUDY    27  25  93 S8        29.60F WCI  18
WHEATON        CLOUDY    27  25  93 S9        29.60F WCI  17
MORRIS         CLOUDY    28  27  93 SW12      29.59F WCI  18
ALEXANDRIA     CLOUDY    28  26  92 SW13      29.58F WCI  17
ELBOW LAKE     CLOUDY    27  26  96 S8        29.58F WCI  18
WADENA         CLOUDY    27  27 100 SW8       29.57R WCI  18
GLENWOOD       CLOUDY    27  27 100 SW10      29.59F WCI  17
APPLETON       CLOUDY    28  27  93 SW5       29.61F WCI  23
BENSON         CLOUDY    28  27  93 W9        29.61S WCI  20
ORTONVILLE     CLOUDY    28  25  86 S5        29.59F WCI  23
MADISON          N/A     32  28  86 SW6       29.61F WCI  26
WILLMAR        CLOUDY    30  28  93 W7        29.62F WCI  23
$$
MNZ033>034-036-042>043-049>051-058-059-250100-
   Central Minnesota

CITY           SKY/WX    TMP DP  RH WIND       PRES   REMARKS
ST CLOUD       CLOUDY    34  28  79 W6        29.59F WCI  29
6HR MIN TEMP:  34; 6HR MAX TEMP:  37;

SAUK CENTRE    CLOUDY    29  28  94 SW6       29.58F WCI  23
PAYNESVILLE    CLOUDY    28  27  97 S5        29.61S WCI  23
AITKIN         CLOUDY    36  28  75 CALM      29.55S
PINE RIVER     CLOUDY    30  28  93 S3        29.59F
BRAINERD       CLOUDY    32  30  92 SW5       29.56F WCI  27
STAPLES        CLOUDY    28  28 100 SW6       29.57R WCI  22
LONG PRAIRIE   CLOUDY    30  28  93 W6        29.57F WCI  24
LITTLE FALLS   CLOUDY    32  28  86 SW3       29.59S
LITCHFIELD     CLOUDY    32  30  93 W5        29.62F WCI  27
BUFFALO        CLOUDY    32  30  91 CALM      29.61F
MAPLE LAKE     CLOUDY    33  32  94 CALM      29.61F
$$
MNZ037-044-045-052-053-250100-
   East Central Minnesota

CITY           SKY/WX    TMP DP  RH WIND       PRES   REMARKS
PRINCETON      CLOUDY    34  30  86 CALM      29.59F
MORA           CLOUDY    32  28  86 CALM      29.60F
CAMBRIDGE      CLOUDY    36  27  69 CALM      29.57F
RUSH CITY      CLOUDY    33  30  88 CALM      29.59F
MOOSE LAKE     MIX PCPN  32  32 100 CALM      29.54F
HINCKLEY       CLOUDY    32  32 100 CALM      29.58F
CLOQUET        CLOUDY    32  30  93 CALM      29.54F
MCGREGOR       CLOUDY    32  32 100 CALM      29.57S
$$
MNZ071>073-080-081-089-090-097-098-250100-
   Southwest Minnesota

CITY           SKY/WX    TMP DP  RH WIND       PRES   REMARKS
MONTEVIDEO     CLOUDY    28  28 100 W7        29.63F WCI  21
GRANITE FALLS  CLOUDY    29  27  91 S8        29.64F WCI  21
CANBY          CLOUDY    28  26  92 SW6       29.62F WCI  21
MARSHALL       CLOUDY    27  25  93 SW9       29.62F WCI  17
REDWOOD FALLS  CLOUDY    31  28  89 SW7       29.63F WCI  24
OLIVIA         CLOUDY    30  28  93 SW6       29.62F WCI  24
PIPESTONE      FOG       25  25 100 SW9       29.62F VSB 1   WCI  15
WINDOM         CLOUDY    28  28 100 W5        29.65S WCI  23
WORTHINGTON    CLOUDY    27 -20  12 SW8       29.66R WCI  18
JACKSON        CLOUDY    30  28  93 W9        29.66S WCI  22
TRACY          CLOUDY    28  27  96 SW9       29.63F WCI  19
SLAYTON        CLOUDY    26  26  99 SW9       29.64S FOG     WCI  17
$$
MNZ065>067-074>077-082>085-091>093-250100-
   South Central Minnesota

CITY           SKY/WX    TMP DP  RH WIND       PRES   REMARKS
MANKATO        CLOUDY    32  27  80 W6        29.65S WCI  26
NEW ULM        CLOUDY    30  28  93 W7        29.65S WCI  23
FAIRMONT       CLOUDY    32  27  80 W9        29.66S WCI  24
GLENCOE        CLOUDY    33  32  98 W6        29.63S WCI  27
FARIBAULT      CLOUDY    32  30  93 W5        29.63F WCI  27
OWATONNA       CLOUDY    32  30  93 W7        29.64F WCI  26
ALBERT LEA     CLOUDY    32  30  93 W5        29.64F WCI  27
$$
MNZ078>079-086>088-094>096-250100-
   Southeast Minnesota

CITY           SKY/WX    TMP DP  RH WIND       PRES   REMARKS
ROCHESTER      CLOUDY    33  28  81 NW10      29.62S WCI  25
6HR MIN TEMP:  32; 6HR MAX TEMP:  33; 6HR PCP: TRACE;

RED WING       CLOUDY    34  30  86 CALM      29.61F
STANTON        CLOUDY    35  32  88 W10       29.61F WCI  27
DODGE CENTER   CLOUDY    34  32  93 W12       29.62S WCI  25
WINONA         CLOUDY    36  32  87 W7        29.62S
AUSTIN         CLOUDY    32  30  93 NW8       29.63S WCI  25
PRESTON        CLOUDY    32  29  90 NW12      29.62S WCI  23
$$
ABBREVIATIONS USED IN REMARKS
   TC - TEMPERATURES IN CELSIUS
  WCI - WIND CHILL INDEX
   HX - HEAT INDEX
  VSB - VISIBILITY
$$



USA.gov is the U.S. government's official web portal to all federal, state and local government web resources and services.